Location: La Fredeussais
(48.1780°N, 1.3980°W)
Time: 16:12:59
(UTC+00:00)

NOSS 3-4 (A) - Pass Details

Date: 09 May 2021
Orbit: 872 x 1340 km, 63.4° (Epoch: 06 May)

Event Time Altitude Azimuth Distance (km) Brightness Sun altitude
Rises 22:38:36 0° 317° (NW) 3,816 7.8 -21.6°
Reaches altitude 10° 22:41:09 10° 314° (NW) 2,923 6.9 -21.8°
Maximum altitude 22:48:02 62° 236° (SW) 1,303 4.0 -22.2°
Enters shadow 22:50:58 38° 173° (S) 1,756 4.3 -22.3°
